SL-8 DEB, 1479

Orbit data source: Space-Track

SL-8 DEB, 1479 is space debris in LEO originally from a launch on Mon, 15 Mar 1965 UTC launched from the Tyuratam Missile And Space Complex (TTMTR). Debris objects in space refer to the collection of defunct objects orbiting the Earth. Examples of debris include non-operational satellites, rocket bodies, and fragments generated from explosions, collisions, or faulty payload assembly.

Loading next visibility...
Identifier
1479, 1965-020BD
Orbit
LEO
Last TLE update
3 days ago
Origin
Manufacturer
Unknown
Mission
Spacecraft
Bus & Motor
Unknown
Mass
Unknown
Launch date (UTC)
1965-03-15 (60 years ago)
Launch vehicle
Unknown
Launch site
Tyuratam Missile And Space Complex (TTMTR)
Object type
Payload
Rocket body
Debris
Shape & HBR
Unknown
Radar Cross Section
Small (<0.1 m²)

Expand to show TLE details & history

TLE from 3 days ago
0 SL-8 DEB
1 01479U 65020BD  25118.02598202  .00000118  00000-0  43499-3 0  9991
2 01479  56.0361  13.3069 0740201 210.0832 145.5543 12.59758745744045
Epoch: 2025-04-28T00:37Z
Definitive object data (Epoch: 2025-04-28T00:37:24.846Z)
Latitude
0.00001°
Longitude
147.70746°
Altitude
1,913.748 km
Speed
6.715 km/s
True Right ascension
00h 53m 13s
True Declination
0° 00' 00"
Sunlit
Object was in daylight at TLE epoch
Visualization TLE readout
Latitude
7.881°
Longitude
144.86478°
Altitude
1,941.398 km
Speed
6.691 km/s
Apparent Right ascension
22h 39m 43s
Apparent Declination
-16° 56' 07"
Sunlit
Object is in daylight
Visualization observer readout
Local Sidereal Time
06:44:49
Azimuth
276.646° WNW
Elevation
-34.599°
Doppler factor
1
Orbital elements
Apogee altitude
2,001.261 km
Perigee altitude
846.267 km
Semi-major axis
7,801.901 km
Eccentricity
0.0740201
Inclination
56.0361°
RAAN
13.3069°
Arg. of periapsis
210.0832°
True anomaly
150.00656°
Mean anomaly
145.5543°
Eccentric anomaly
147.81341°
Mean motion
3.14951 °/min
BSTAR
0.00043499
Orbital period
114.3 mins
Loading maneuver chart data...
Loading SW <> Apogee altitude chart data...
Loading historical data...
Loading historical data...
Loading historical data...
Loading historical data...
Loading historical data...
Loading historical data...
Loading historical data...

SL-8 DEB Visibility forecast

Observer location: undefined°, undefined°

Span
Click to sort rows by Start time (UTC) header in descending order
Start Az.
Max El. time (UTC)
Max El. Az.
Max El.
End time (UTC)
End Az.
16 mins2025-04-30 23:32:44.069Z311.064° NW2025-04-30 23:41:44.069Z13.899° NNE28.501°2025-04-30 23:48:44.069Z69.863° E
15 mins2025-05-01 01:34:44.069Z318.442° NNW2025-05-01 01:42:44.069Z30.965° NE41.484°2025-05-01 01:49:44.069Z115.87° SE
12 mins2025-05-01 03:35:44.069Z297.788° NW2025-05-01 03:41:44.069Z241.51° WSW30.818°2025-05-01 03:47:44.069Z178.111° S
15 mins2025-05-01 16:19:44.069Z152.834° SSE2025-05-01 16:26:44.069Z111.965° ESE21.762°2025-05-01 16:34:44.069Z67.576° E
21 mins2025-05-01 18:14:44.069Z212.208° SW2025-05-01 18:25:44.069Z111.421° ESE44.099°2025-05-01 18:35:44.069Z47.996° ENE
20 mins2025-05-01 20:15:44.069Z260.378° W2025-05-01 20:25:44.069Z325.753° NNW36.918°2025-05-01 20:35:44.069Z42.887° NE
16 mins2025-05-01 22:20:44.069Z303.061° NW2025-05-01 22:28:44.069Z357.96° N27.951°2025-05-01 22:36:44.069Z56.669° ENE
|